Weather History for KISN - March, 2013

Change the Weather History Date:

Thursday, March 21, 2013

  Actual Average Record
Temperature  
Mean Temperature 18 °F 32 °F  
Max Temperature 26 °F 43 °F 72 °F (1910)
Min Temperature 10 °F 20 °F -15 °F (1899)
Degree Days  
Heating Degree Days 47 33  
Month to date heating degree days 980 801  
Since 1 July heating degree days 7568 7569  
Cooling Degree Days 0 0  
Month to date cooling degree days 0 0  
Year to date cooling degree days 0 0  
Moisture  
Dew Point 11 °F    
Average Humidity 74    
Maximum Humidity 92    
Minimum Humidity 55    
Precipitation  
Precipitation 0.04 in 0.02 in 0.53 in (1941)
Month to date precipitation 1.04 0.46  
Year to date precipitation 1.61 1.44  
Snow  
Snow 0.20 in 0.10 in 5.30 in (1941)
Month to date snowfall 12.1 4.5  
Snow Depth 6.00 in    
Sea Level Pressure  
Sea Level Pressure 29.96 in    
Wind  
Wind Speed 12 mph (ESE)    
Max Wind Speed 20 mph    
Max Gust Speed 24 mph    
Visibility 8 miles    
Events Snow    
T = Trace of Precipitation, MM = Missing Value Source: NWS Daily Summary

Daily Weather History Graph

Daily Weather History Graph

Search for Another Location

Airport or City:

Trip Planner

Search our weather history database for the weather conditions in past years. The results will help you decide how hot, cold, wet, or windy it might be!

Date:

Astronomy

Mar. 21, 2013 Rise Set
Actual Time 7:54 AM CDT 8:09 PM CDT
Civil Twilight 7:23 AM CDT 8:40 PM CDT
Nautical Twilight 6:47 AM CDT 9:17 PM CDT
Astronomical Twilight 6:09 AM CDT 9:55 PM CDT
Moon 2:19 PM CDT (3/21) 4:40 AM CDT (3/21)
Length of Visible Light 13h 16m
Length of Day
12h 14m
Waxing Gibbous, 69% of the Moon is Illuminated
Mar 21
Waxing Gibbous
Mar 27
Full
Apr 2
Last Quarter
Apr 10
New
Apr 18
First Quarter

Hourly Weather History & Observations

Time (CDT) Temp. Windchill Dew Point Humidity Pressure Visibility Wind Dir Wind Speed Gust Speed Precip Events Conditions
12:52 AM 16.0 °F 2.3 °F 9.0 °F 74% 30.01 in 10.0 mi East 12.7 mph - N/A   Mostly Cloudy
1:52 AM 16.0 °F 2.9 °F 9.0 °F 74% 29.99 in 10.0 mi East 11.5 mph 21.9 mph N/A   Overcast
2:52 AM 16.0 °F 2.3 °F 8.1 °F 71% 29.99 in 10.0 mi East 12.7 mph - N/A   Overcast
3:52 AM 14.0 °F 2.0 °F 7.0 °F 74% 29.97 in 10.0 mi East 9.2 mph - N/A   Overcast
4:52 AM 12.0 °F 0.5 °F 5.0 °F 73% 29.96 in 10.0 mi East 8.1 mph - N/A   Partly Cloudy
5:52 AM 14.0 °F -0.8 °F 1.9 °F 59% 29.94 in 10.0 mi ESE 13.8 mph 21.9 mph N/A   Clear
6:52 AM 12.9 °F -0.9 °F 3.9 °F 67% 29.94 in 10.0 mi East 11.5 mph - N/A   Clear
7:52 AM 12.0 °F -3.4 °F 3.9 °F 70% 29.95 in 10.0 mi ESE 13.8 mph - N/A   Clear
8:52 AM 10.9 °F -2.6 °F 3.9 °F 73% 29.95 in 10.0 mi ESE 10.4 mph - N/A   Mostly Cloudy
9:52 AM 10.9 °F -4.1 °F 5.0 °F 77% 29.96 in 10.0 mi East 12.7 mph - N/A   Partly Cloudy
10:52 AM 14.0 °F -0.2 °F 6.1 °F 71% 29.96 in 10.0 mi ESE 12.7 mph - N/A   Overcast
11:52 AM 17.1 °F 2.5 °F 7.0 °F 65% 29.97 in 10.0 mi ESE 15.0 mph - N/A   Overcast
12:52 PM 19.0 °F 5.6 °F 8.1 °F 62% 29.96 in 10.0 mi SE 13.8 mph - N/A   Mostly Cloudy
1:52 PM 21.9 °F 8.7 °F 10.0 °F 60% 29.95 in 10.0 mi SE 15.0 mph 21.9 mph N/A   Overcast
2:52 PM 24.1 °F 12.5 °F 10.9 °F 57% 29.95 in 10.0 mi SSE 12.7 mph 19.6 mph N/A   Overcast
3:52 PM 26.1 °F 15.0 °F 12.9 °F 58% 29.94 in 10.0 mi SSE 12.7 mph - N/A   Overcast
4:52 PM 23.0 °F 12.4 °F 15.1 °F 72% 29.96 in 10.0 mi East 10.4 mph - 0.00 in   Overcast
5:01 PM 24.8 °F 14.6 °F 15.8 °F 69% 29.85 in 10.0 mi East 10.4 mph - N/A   Overcast
5:52 PM 23.0 °F 13.1 °F 15.1 °F 72% 29.97 in 10.0 mi East 9.2 mph - N/A   Overcast
6:52 PM 21.0 °F 8.6 °F 16.0 °F 81% 29.99 in 5.0 mi ESE 12.7 mph - 0.00 in Snow Light Snow
7:52 PM 19.9 °F 8.6 °F 15.1 °F 81% 30.01 in 4.0 mi ESE 10.4 mph - 0.00 in Snow Light Snow
8:21 PM 19.4 °F 7.9 °F 15.8 °F 86% 29.90 in 2.5 mi ESE 10.4 mph - 0.00 in Snow Light Snow
8:33 PM 19.4 °F 7.2 °F 15.8 °F 86% 29.91 in 1.8 mi ESE 11.5 mph - 0.00 in Snow Light Snow
8:52 PM 19.4 °F 8.6 °F 15.8 °F 86% 29.91 in 1.5 mi ESE 9.2 mph - N/A Snow Light Snow
9:22 PM 17.6 °F 6.4 °F 15.8 °F 93% 29.92 in 2.0 mi ESE 9.2 mph - 0.01 in Snow Light Snow
9:34 PM 17.6 °F 7.3 °F 15.8 °F 93% 29.92 in 2.5 mi ESE 8.1 mph - 0.01 in Snow Light Snow
9:52 PM 18.0 °F 5.4 °F 15.1 °F 88% 30.04 in 2.5 mi ESE 11.5 mph - 0.01 in Snow Light Snow
9:58 PM 17.6 °F 6.4 °F 14.0 °F 86% 29.92 in 4.0 mi ESE 9.2 mph - 0.00 in Snow Light Snow
10:52 PM 18.0 °F 6.1 °F 14.0 °F 84% 30.04 in 6.0 mi East 10.4 mph - 0.00 in Snow Light Snow
11:32 PM 17.6 °F 5.0 °F 14.0 °F 86% 29.92 in 2.5 mi ESE 11.5 mph - 0.01 in Snow Light Snow
11:52 PM 17.1 °F 5.0 °F 14.0 °F 88% 30.03 in 2.0 mi ESE 10.4 mph - 0.01 in Snow Light Snow